Location: Krakow
(50.0830°N, 19.9170°E)
Time: 06:32:48
(UTC+02:00)

Tiros 1 despin weight - Pass Details

Date: 22 March 2026
Orbit: 555 x 592 km, 48.2° (Epoch: 18 April)

Event Time Altitude Azimuth Distance (km) Brightness Sun altitude
Rises 06:00:53 0° 276° (W) 2,819 ? 2.7°
Reaches altitude 10° 06:03:12 10° 272° (W) 1,913 ? 3.0°
Maximum altitude 06:07:31 57° 194° (SSW) 690 ? 3.7°
Drops below altitude 10° 06:11:45 10° 116° (ESE) 1,890 ? 4.4°
Sets 06:14:02 0° 112° (ESE) 2,781 ? 4.8°
